Weather History for KT65 - November, 2012

Change the Weather History Date:

Thursday, November 8, 2012

  Actual Average (KMFE) Record (KMFE)
Temperature  
Mean Temperature 74 °F 72 °F  
Max Temperature 87 °F 82 °F 95 °F (2011)
Min Temperature 62 °F 61 °F 39 °F (1896)
Degree Days  
Heating Degree Days 0 1  
Month to date heating degree days 8  
Since 1 July heating degree days 13  
Cooling Degree Days 10 8  
Month to date cooling degree days 68  
Year to date cooling degree days 4250  
Growing Degree Days 24 (Base 50)    
Moisture  
Dew Point 58 °F    
Average Humidity 62    
Maximum Humidity 83    
Minimum Humidity 33    
Precipitation  
Precipitation 0.00 in 0.03 in 1.40 in (1987)
Month to date precipitation 0.32  
Year to date precipitation 20.44  
Sea Level Pressure  
Sea Level Pressure 30.06 in    
Wind  
Wind Speed 8 mph (SSE)    
Max Wind Speed 21 mph    
Max Gust Speed 30 mph    
Visibility 10 miles    
Events      
T = Trace of Precipitation, MM = Missing Value Source: NWS Daily Summary

Daily Weather History Graph

Daily Weather History Graph

Search for Another Location

Airport or City:

Trip Planner

Search our weather history database for the weather conditions in past years. The results will help you decide how hot, cold, wet, or windy it might be!

Date:

Astronomy

Nov. 08, 2012 Rise Set
Actual Time 6:45 AM CST 5:45 PM CST
Civil Twilight 6:21 AM CST 6:09 PM CST
Nautical Twilight 5:54 AM CST 6:36 PM CST
Astronomical Twilight 5:26 AM CST 7:04 PM CST
Moon 1:15 AM CST (11/8) 1:57 PM CST (11/8)
Length of Visible Light 11h 47m
Length of Day
10h 59m
Waning Crescent, 32% of the Moon is Illuminated
Nov 8
Waning Crescent
Nov 13
New
Nov 20
First Quarter
Nov 28
Full
Dec 6
Last Quarter

Hourly Weather History & Observations

Time (CST) Temp. Heat Index Dew Point Humidity Pressure Visibility Wind Dir Wind Speed Gust Speed Precip Events Conditions
12:15 AM 64.4 °F - 55.4 °F 73% 30.10 in 10.0 mi SSE 4.6 mph - N/A   Unknown
12:35 AM 64.4 °F - 55.4 °F 73% 30.10 in 10.0 mi South 6.9 mph - N/A   Unknown
12:55 AM 64.4 °F - 55.4 °F 73% 30.09 in 10.0 mi South 6.9 mph - N/A   Unknown
1:15 AM 64.4 °F - 55.4 °F 73% 30.09 in 10.0 mi South 5.8 mph - N/A   Unknown
1:35 AM 64.4 °F - 55.4 °F 73% 30.09 in 10.0 mi SSE 4.6 mph - N/A   Unknown
1:55 AM 64.4 °F - 55.4 °F 73% 30.09 in 10.0 mi SE 3.5 mph - N/A   Unknown
2:15 AM 62.6 °F - 55.4 °F 77% 30.09 in 10.0 mi SSE 3.5 mph - N/A   Unknown
2:35 AM 62.6 °F - 55.4 °F 77% 30.08 in 10.0 mi SSE 3.5 mph - N/A   Clear
2:55 AM 62.6 °F - 55.4 °F 77% 30.08 in 10.0 mi Calm Calm - N/A   Clear
3:15 AM 62.6 °F - 55.4 °F 77% 30.08 in 10.0 mi SSE 3.5 mph - N/A   Clear
3:35 AM 62.6 °F - 55.4 °F 77% 30.08 in 10.0 mi SSE 4.6 mph - N/A   Clear
3:55 AM 62.6 °F - 55.4 °F 77% 30.07 in 10.0 mi SSE 5.8 mph - N/A   Clear
4:15 AM 62.6 °F - 55.4 °F 77% 30.07 in 10.0 mi SSE 4.6 mph - N/A   Clear
4:35 AM 62.6 °F - 55.4 °F 77% 30.07 in 10.0 mi SSE 4.6 mph - N/A   Clear
4:55 AM 62.6 °F - 57.2 °F 82% 30.07 in 10.0 mi SE 4.6 mph - N/A   Clear
5:15 AM 62.6 °F - 57.2 °F 82% 30.08 in 10.0 mi SSE 4.6 mph - N/A   Clear
5:35 AM 62.6 °F - 57.2 °F 82% 30.07 in 10.0 mi SE 4.6 mph - N/A   Clear
5:55 AM 62.6 °F - 57.2 °F 82% 30.08 in 10.0 mi SSE 5.8 mph - N/A   Clear
6:15 AM 62.6 °F - 57.2 °F 82% 30.08 in 10.0 mi SSE 4.6 mph - N/A   Clear
6:35 AM 62.6 °F - 55.4 °F 77% 30.09 in 10.0 mi SSE 3.5 mph - N/A   Clear
6:55 AM 62.6 °F - 57.2 °F 82% 30.09 in 10.0 mi SSE 4.6 mph - N/A   Clear
7:15 AM 62.6 °F - 57.2 °F 82% 30.10 in 7.0 mi Calm Calm - N/A   Clear
7:35 AM 64.4 °F - 59.0 °F 83% 30.11 in 10.0 mi South 3.5 mph - N/A   Clear
7:55 AM 68.0 °F - 59.0 °F 73% 30.12 in 10.0 mi SSE 5.8 mph - N/A   Clear
8:15 AM 69.8 °F - 59.0 °F 68% 30.12 in 10.0 mi SSE 5.8 mph - N/A   Clear
8:35 AM 71.6 °F - 60.8 °F 69% 30.13 in 10.0 mi SSE 5.8 mph - N/A   Clear
8:55 AM 73.4 °F - 62.6 °F 69% 30.13 in 10.0 mi SSE 10.4 mph - N/A   Clear
9:15 AM 77.0 °F - 62.6 °F 61% 30.13 in 10.0 mi SSE 10.4 mph - N/A   Clear
9:35 AM 78.8 °F - 62.6 °F 57% 30.13 in 10.0 mi SSE 12.7 mph 18.4 mph N/A   Clear
9:55 AM 78.8 °F - 62.6 °F 57% 30.13 in 7.0 mi South 15.0 mph - N/A   Clear
10:15 AM 80.6 °F 81.8 °F 62.6 °F 54% 30.13 in 10.0 mi South 18.4 mph 24.2 mph N/A   Clear
10:35 AM 82.4 °F 82.9 °F 60.8 °F 48% 30.13 in 10.0 mi SSE 20.7 mph 26.5 mph N/A   Clear
10:55 AM 82.4 °F 82.9 °F 60.8 °F 48% 30.12 in 10.0 mi South 19.6 mph 24.2 mph N/A   Clear
11:15 AM 84.2 °F 84.4 °F 60.8 °F 45% 30.10 in 10.0 mi SSE 16.1 mph 23.0 mph N/A   Clear
11:35 AM 86.0 °F 85.4 °F 59.0 °F 40% 30.09 in 10.0 mi South 17.3 mph 20.7 mph N/A   Scattered Clouds
11:55 AM 86.0 °F 85.4 °F 59.0 °F 40% 30.08 in 10.0 mi South 18.4 mph 24.2 mph N/A   Scattered Clouds
12:15 PM 86.0 °F 85.4 °F 59.0 °F 40% 30.07 in 10.0 mi SSE 16.1 mph 24.2 mph N/A   Unknown
12:55 PM 87.8 °F 86.5 °F 57.2 °F 35% 30.04 in 10.0 mi SSE 18.4 mph 21.9 mph N/A   Unknown
1:15 PM 86.0 °F 84.5 °F 55.4 °F 35% 30.03 in 10.0 mi South 18.4 mph 26.5 mph N/A   Unknown
1:35 PM 87.8 °F 86.1 °F 55.4 °F 33% 30.02 in 10.0 mi South 16.1 mph 23.0 mph N/A   Unknown
1:55 PM 87.8 °F 86.1 °F 55.4 °F 33% 30.01 in 10.0 mi South 18.4 mph 26.5 mph N/A   Unknown
2:15 PM 86.0 °F 84.2 °F 53.6 °F 33% 30.01 in 10.0 mi South 19.6 mph 25.3 mph N/A   Unknown
2:35 PM 86.0 °F 84.5 °F 55.4 °F 35% 30.01 in 10.0 mi South 16.1 mph 29.9 mph N/A   Unknown
2:55 PM 86.0 °F 84.5 °F 55.4 °F 35% 30.00 in 10.0 mi South 16.1 mph 23.0 mph N/A   Unknown
3:15 PM 86.0 °F 84.5 °F 55.4 °F 35% 30.01 in 10.0 mi South 17.3 mph 24.2 mph N/A   Unknown
3:35 PM 86.0 °F 84.9 °F 57.2 °F 37% 30.00 in 10.0 mi SSE 19.6 mph 26.5 mph N/A   Unknown
3:55 PM 84.2 °F 83.5 °F 57.2 °F 40% 30.00 in 10.0 mi SSE 20.7 mph 25.3 mph N/A   Unknown
4:15 PM 82.4 °F 82.0 °F 57.2 °F 42% 30.00 in 10.0 mi SSE 13.8 mph 27.6 mph N/A   Unknown
4:35 PM 82.4 °F 82.5 °F 59.0 °F 45% 30.00 in 10.0 mi SSE 17.3 mph 25.3 mph N/A   Unknown
4:55 PM 80.6 °F 81.1 °F 59.0 °F 48% 30.00 in 10.0 mi SE 17.3 mph 26.5 mph N/A   Unknown
5:15 PM 80.6 °F 81.1 °F 59.0 °F 48% 30.01 in 10.0 mi SE 17.3 mph 25.3 mph N/A   Unknown
5:35 PM 78.8 °F - 59.0 °F 51% 30.01 in 10.0 mi SSE 13.8 mph 21.9 mph N/A   Unknown
5:55 PM 77.0 °F - 59.0 °F 54% 30.01 in 10.0 mi SSE 15.0 mph 24.2 mph N/A   Unknown
6:15 PM 77.0 °F - 60.8 °F 57% 30.02 in 10.0 mi SSE 11.5 mph 16.1 mph N/A   Unknown
6:35 PM 75.2 °F - 60.8 °F 61% 30.02 in 10.0 mi SE 10.4 mph 17.3 mph N/A   Unknown
6:55 PM 75.2 °F - 60.8 °F 61% 30.03 in 10.0 mi SSE 11.5 mph 17.3 mph N/A   Unknown
7:15 PM 73.4 °F - 60.8 °F 65% 30.04 in 10.0 mi SSE 10.4 mph - N/A   Unknown
7:35 PM 73.4 °F - 60.8 °F 65% 30.04 in 10.0 mi SE 11.5 mph 17.3 mph N/A   Unknown
7:55 PM 73.4 °F - 60.8 °F 65% 30.05 in 10.0 mi SE 8.1 mph 17.3 mph N/A   Unknown
8:15 PM 73.4 °F - 60.8 °F 65% 30.05 in 10.0 mi SE 11.5 mph 16.1 mph N/A   Unknown
8:35 PM 73.4 °F - 60.8 °F 65% 30.04 in 10.0 mi SE 9.2 mph - N/A   Unknown
8:55 PM 71.6 °F - 60.8 °F 69% 30.05 in 10.0 mi SE 10.4 mph 16.1 mph N/A   Unknown
9:15 PM 71.6 °F - 60.8 °F 69% 30.05 in 10.0 mi SSE 9.2 mph - N/A   Unknown
9:35 PM 71.6 °F - 60.8 °F 69% 30.05 in 10.0 mi SE 9.2 mph - N/A   Unknown
9:55 PM 71.6 °F - 60.8 °F 69% 30.05 in 10.0 mi SE 10.4 mph - N/A   Unknown
10:15 PM 71.6 °F - 60.8 °F 69% 30.05 in 10.0 mi SSE 9.2 mph - N/A   Unknown
10:35 PM 71.6 °F - 60.8 °F 69% 30.06 in 10.0 mi SSE 9.2 mph 16.1 mph N/A   Unknown
10:55 PM 71.6 °F - 60.8 °F 69% 30.06 in 10.0 mi SSE 8.1 mph - N/A   Unknown
11:15 PM 69.8 °F - 60.8 °F 73% 30.06 in 10.0 mi SSE 6.9 mph - N/A   Unknown
11:35 PM 69.8 °F - 60.8 °F 73% 30.05 in 10.0 mi SSE 8.1 mph - N/A   Unknown
11:55 PM 69.8 °F - 60.8 °F 73% 30.05 in 10.0 mi SSE 8.1 mph - N/A   Unknown